EW1675 Weather Reports


time (UTC)temp
C
wind
direction
speed
KPH
gust
KPH
rain 1hr
cm
rain 24hr
cm
rain mn
cm
humidity
%
barometer
mb
20260510061001 12 0 0.0 0.0 0.00 0.00 0.00 88 1010.4
20260510060043 12 0 0.0 0.0 0.00 0.00 0.00 88 1010.4
20260510055022 12 0 0.0 0.0 0.00 0.00 0.00 88 1010.4
20260510054001 12 0 0.0 0.0 0.00 0.00 0.00 88 1010.4
20260510053001 13 0 0.0 0.0 0.00 0.00 0.00 87 1010.4
20260510052043 13 0 0.0 0.0 0.00 0.00 0.00 87 1010.5
20260510051022 13 0 0.0 0.0 0.00 0.00 0.00 86 1010.6
20260510050001 13 0 0.0 0.0 0.00 0.00 0.00 86 1010.5
20260510045022 13 0 0.0 0.0 0.00 0.00 0.00 85 1010.5
20260510044001 13 0 0.0 0.0 0.00 0.00 0.00 85 1010.4
20260510043022 14 0 0.0 0.0 0.00 0.00 0.00 85 1010.5
20260510042002 14 0 0.0 0.0 0.00 0.00 0.00 84 1010.3
20260510041001 14 0 0.0 0.0 0.00 0.00 0.00 84 1010.3
20260510040044 15 0 0.0 0.0 0.00 0.00 0.00 84 1010.3
20260510035023 15 0 0.0 0.0 0.00 0.00 0.00 83 1010.3
20260510034022 15 0 0.0 0.0 0.00 0.00 0.00 82 1010.2
20260510033002 15 0 0.0 0.0 0.00 0.00 0.00 81 1010.1
20260510032022 15 0 0.0 0.0 0.00 0.00 0.00 80 1010.2
20260510031002 16 0 0.0 0.0 0.00 0.00 0.00 80 1010.1
20260510030044 16 0 0.0 0.0 0.00 0.00 0.00 80 1010.1
20260510025044 16 0 0.0 0.0 0.00 0.00 0.00 79 1010.1
20260510024043 16 0 0.0 0.0 0.00 0.00 0.00 79 1010.0
20260510023022 16 0 0.0 0.0 0.00 0.00 0.00 78 1009.8
20260510022002 17 0 0.0 0.0 0.00 0.00 0.00 78 1009.8
20260510021002 17 0 0.0 0.0 0.00 0.00 0.00 77 1009.7
20260510020001 17 0 0.0 0.0 0.00 0.00 0.00 77 1009.7
20260510015044 17 0 0.0 0.0 0.00 0.00 0.00 76 1009.5
20260510014002 17 0 0.0 0.0 0.00 0.00 0.00 76 1009.4
20260510013023 17 0 0.0 0.0 0.00 0.00 0.00 76 1009.3
20260510012043 18 0 0.0 0.0 0.00 0.00 0.00 74 1009.1
20260510011023 18 0 0.0 0.0 0.00 0.00 0.00 73 1008.9
20260510010023 18 0 0.0 0.0 0.00 0.00 0.00 71 1008.9
20260510005001 19 0 0.0 0.0 0.00 0.00 0.00 70 1008.9
20260510004002 20 0 0.0 0.0 0.00 0.00 0.00 69 1008.8
20260510003003 20 0 0.0 0.0 0.00 0.00 0.00 67 1008.7
20260510002023 21 126 0.0 1.6 0.00 0.00 0.00 65 1008.7
20260510001023 21 0 0.0 0.0 0.00 0.00 0.00 64 1008.6
20260510000023 21 0 0.0 0.0 0.00 0.00 0.00 63 1008.5
20260509235002 22 128 0.0 1.6 0.00 0.00 0.00 61 1008.3
20260509234044 22 128 0.0 1.6 0.00 0.00 0.00 61 1008.3
20260509233044 22 128 0.0 1.6 0.00 0.00 0.00 59 1008.2
20260509232044 22 129 0.0 3.2 0.00 0.00 0.00 59 1008.2
20260509231023 22 124 0.0 3.2 0.00 0.00 0.00 58 1008.3
20260509230002 22 114 0.0 1.6 0.00 0.00 0.00 58 1008.2
20260509225044 23 114 0.0 1.6 0.00 0.00 0.00 57 1008.2
20260509224002 23 133 0.0 3.2 0.00 0.00 0.00 55 1008.3
20260509223002 23 151 1.6 8.0 0.00 0.00 0.00 54 1008.3
20260509222023 23 152 1.6 8.0 0.00 0.00 0.00 52 1008.3
20260509221002 23 153 0.0 3.2 0.00 0.00 0.00 48 1008.3
20260509220023 23 153 0.0 4.8 0.00 0.00 0.00 49 1008.2
20260509215002 23 140 0.0 4.8 0.00 0.00 0.00 49 1008.2
20260509214044 24 176 1.6 6.4 0.00 0.00 0.00 48 1008.2
20260509213002 23 254 0.0 4.8 0.00 0.00 0.00 50 1008.1
20260509212002 23 182 1.6 8.0 0.00 0.00 0.00 51 1007.9
20260509211023 23 175 1.6 6.4 0.00 0.00 0.00 53 1008.0
20260509210002 23 159 1.6 8.0 0.00 0.00 0.00 54 1008.0
20260509205002 23 152 1.6 6.4 0.00 0.00 0.00 53 1007.8
20260509204002 23 143 3.2 12.9 0.00 0.00 0.00 53 1008.0
20260509203023 23 151 3.2 11.3 0.00 0.00 0.00 52 1007.9
20260509202002 24 183 1.6 11.3 0.00 0.00 0.00 55 1007.8
20260509201002 24 113 3.2 11.3 0.00 0.00 0.00 59 1007.9
20260509200023 24 168 1.6 8.0 0.00 0.00 0.00 58 1008.2
20260509195002 23 164 3.2 11.3 0.00 0.00 0.00 54 1008.3
20260509194002 23 164 3.2 9.7 0.00 0.00 0.00 60 1008.5
20260509193002 22 133 3.2 11.3 0.00 0.00 0.00 60 1008.5
20260509192002 22 149 3.2 12.9 0.00 0.00 0.00 58 1009.1
20260509191002 21 171 3.2 9.7 0.00 0.00 0.00 59 1009.1
20260509190003 21 166 3.2 11.3 0.00 0.00 0.00 59 1009.2
20260509185002 21 164 1.6 8.0 0.00 0.00 0.00 61 1009.2
20260509184002 21 152 3.2 17.7 0.00 0.00 0.00 60 1009.1
20260509183002 21 170 1.6 8.0 0.00 0.00 0.00 60 1009.2
20260509182023 21 134 1.6 8.0 0.00 0.00 0.00 61 1009.4
20260509181002 21 165 1.6 6.4 0.00 0.00 0.00 60 1009.5
20260509180024 21 137 0.0 6.4 0.00 0.00 0.00 62 1009.9
20260509175002 21 161 0.0 4.8 0.00 0.00 0.00 61 1010.0
20260509174002 21 128 1.6 9.7 0.00 0.00 0.00 59 1010.1
20260509173023 21 142 0.0 6.4 0.00 0.00 0.00 60 1010.1
20260509172002 21 150 1.6 6.4 0.00 0.00 0.00 59 1010.1
20260509171002 21 168 1.6 11.3 0.00 0.00 0.00 59 1010.1
20260509170023 21 176 1.6 4.8 0.00 0.00 0.00 60 1010.1
20260509165023 21 127 1.6 4.8 0.00 0.00 0.00 62 1010.2
20260509164024 21 156 1.6 4.8 0.00 0.00 0.00 61 1010.3
20260509163025 21 155 1.6 12.9 0.00 0.00 0.00 60 1010.3
20260509162002 21 160 3.2 14.5 0.00 0.00 0.00 60 1010.5
20260509161003 21 162 1.6 9.7 0.00 0.00 0.00 64 1010.4
20260509160003 21 166 1.6 9.7 0.00 0.00 0.00 59 1010.4
20260509155023 21 141 1.6 12.9 0.00 0.00 0.00 60 1010.5
20260509154004 20 166 1.6 12.9 0.00 0.00 0.00 61 1010.6
20260509153025 20 160 1.6 9.7 0.00 0.00 0.00 61 1010.7
20260509152044 20 155 3.2 11.3 0.00 0.00 0.00 58 1010.7
20260509151003 20 154 1.6 19.3 0.00 0.00 0.00 61 1010.6
20260509150002 20 153 3.2 12.9 0.00 0.00 0.00 60 1011.0
20260509145003 19 151 3.2 11.3 0.00 0.00 0.00 63 1011.1
20260509144024 18 141 1.6 11.3 0.00 0.00 0.00 62 1011.3
20260509143045 18 133 3.2 11.3 0.00 0.00 0.00 64 1011.3
20260509142002 17 166 1.6 9.7 0.00 0.00 0.00 66 1011.4
20260509141024 16 146 1.6 8.0 0.00 0.00 0.00 69 1011.5
20260509140003 16 157 1.6 4.8 0.00 0.00 0.00 68 1011.5
20260509135003 15 179 1.6 6.4 0.00 0.00 0.00 68 1011.4
20260509134025 15 206 0.0 3.2 0.00 0.00 0.00 69 1011.4
20260509133004 15 198 0.0 4.8 0.00 0.00 0.00 70 1011.6
20260509132003 15 202 0.0 6.4 0.00 0.00 0.00 69 1011.6
20260509131003 15 167 1.6 8.0 0.00 0.00 0.00 70 1011.5
20260509130003 15 161 1.6 9.7 0.00 0.00 0.00 69 1011.5
20260509125003 15 160 1.6 12.9 0.00 0.00 0.00 69 1011.5
20260509124024 14 156 1.6 6.4 0.00 0.00 0.00 69 1011.5
20260509123106 14 178 1.6 8.0 0.00 0.00 0.00 68 1011.6
20260509122003 14 143 1.6 9.7 0.00 0.00 0.00 67 1011.5
20260509121048 14 123 1.6 6.4 0.00 0.00 0.00 66 1011.6
20260509120024 14 171 0.0 3.2 0.00 0.00 0.00 65 1011.6
20260509115024 14 171 0.0 3.2 0.00 0.00 0.00 65 1011.5
20260509114003 14 171 0.0 6.4 0.00 0.00 0.00 64 1011.4
20260509113046 14 160 1.6 6.4 0.00 0.00 0.00 64 1011.5
20260509112004 14 163 1.6 3.2 0.00 0.00 0.00 64 1011.4
20260509111024 14 201 0.0 4.8 0.00 0.00 0.00 64 1011.3
20260509110045 13 199 0.0 4.8 0.00 0.00 0.00 63 1011.4
20260509105025 13 179 0.0 3.2 0.00 0.00 0.00 63 1011.2
20260509104024 13 179 0.0 4.8 0.00 0.00 0.00 62 1011.2
20260509103001 13 181 0.0 3.2 0.00 0.00 0.00 62 1011.2
20260509102001 13 184 0.0 1.6 0.00 0.00 0.00 62 1011.2
20260509101043 13 172 0.0 6.4 0.00 0.00 0.00 61 1010.9
20260509100001 14 160 0.0 3.2 0.00 0.00 0.00 61 1010.9
20260509095001 14 195 0.0 6.4 0.00 0.00 0.00 61 1010.8
20260509094001 14 224 0.0 3.2 0.00 0.00 0.00 60 1010.8
20260509093022 14 180 1.6 6.4 0.00 0.00 0.00 60 1010.9
20260509092001 14 119 1.6 6.4 0.00 0.00 0.00 61 1011.1
20260509091022 13 165 1.6 9.7 0.00 0.00 0.00 61 1011.1
20260509090043 13 161 1.6 8.0 0.00 0.00 0.00 61 1011.3
20260509085022 13 157 1.6 9.7 0.00 0.00 0.00 61 1011.2
20260509084002 13 170 1.6 8.0 0.00 0.00 0.00 62 1011.4
20260509083001 13 109 0.0 4.8 0.00 0.00 0.00 63 1011.4
20260509082001 13 151 1.6 4.8 0.00 0.00 0.00 63 1011.5
20260509081001 13 127 0.0 8.0 0.00 0.00 0.00 63 1011.6
20260509080022 13 168 0.0 4.8 0.00 0.00 0.00 64 1011.7
20260509075023 13 160 1.6 8.0 0.00 0.00 0.00 64 1011.9
20260509074022 13 145 0.0 8.0 0.00 0.00 0.00 64 1011.8
20260509073022 13 120 1.6 4.8 0.00 0.00 0.00 63 1011.9
20260509072022 13 122 1.6 6.4 0.00 0.00 0.00 63 1012.0
20260509071022 13 106 1.6 4.8 0.00 0.00 0.00 62 1011.8
20260509070104 13 122 1.6 8.0 0.00 0.00 0.00 61 1011.7
20260509065001 13 140 0.0 3.2 0.00 0.00 0.00 60 1011.7
20260509064001 13 147 1.6 9.7 0.00 0.00 0.00 60 1011.8
20260509063022 14 143 1.6 11.3 0.00 0.00 0.00 59 1011.9
20260509062022 14 157 0.0 3.2 0.00 0.00 0.00 59 1012.1